This demonstration page uses our WeatherBlox Daily Observations layout. Learn more.

Left ArrowRight Arrow

Hourly Observations for November 17, 2022

Temp ( °F °C ) Dew Point ( °F °C ) Humidity (%) Winds ( mph kmh ) Pressure ( in mb ) Visibility ( mi km ) Precip ( " mm )
12:53 am 00:53 Clear 25 -3.9 18 -7.8 74 74 SW 8 13 30.39 1029 10 16 0.00 0.00
1:53 am 01:53 Clear 27 -2.8 19 -7.2 72 72 SW 8 13 30.37 1029 10 16 0.00 0.00
2:53 am 02:53 Clear 25 -3.9 19 -7.2 78 78 SSW 6 9 30.36 1028 10 16 0.00 0.00
3:53 am 03:53 Clear 23 -5 18 -7.8 81 81 SSW 6 9 30.36 1028 10 16 0.00 0.00
4:53 am 04:53 Clear 24 -4.4 19 -7.2 81 81 S 3 6 30.36 1028 10 16 0.00 0.00
5:53 am 05:53 Clear 22 -5.6 18 -7.8 84 84 SSW 3 6 30.37 1028 10 16 0.00 0.00
6:53 am 06:53 Mostly Clear 22 -5.6 18 -7.8 84 84 S 6 9 30.36 1028 10 16 0.00 0.00
7:53 am 07:53 Mostly Cloudy 28 -2.2 22 -5.6 77 77 W 5 7 30.38 1029 10 16 0.00 0.00
8:53 am 08:53 Mostly Cloudy 35 1.7 26 -3.3 69 69 WNW 7 11 30.38 1029 10 16 0.00 0.00
9:53 am 09:53 Mostly Cloudy 38 3.3 24 -4.4 57 57 NNW 12 19 30.39 1029 10 16 0.00 0.00
10:53 am 10:53 Mostly Cloudy 43 6.1 26 -3.3 51 51 N 8 13 30.38 1029 10 16 0.00 0.00
11:53 am 11:53 Mostly Cloudy 46 7.8 28 -2.2 49 49 NNE 14 22 30.36 1028 10 16 0.00 0.00
12:53 pm 12:53 Mostly Cloudy 45 7.2 28 -2.2 51 51 N 10 17 30.34 1028 10 16 0.00 0.00
1:53 pm 13:53 Partly Cloudy 47 8.3 27 -2.8 45 45 N 15 24 30.33 1027 10 16 0.00 0.00
2:53 pm 14:53 Mostly Cloudy 44 6.7 27 -2.8 51 51 N 16 26 30.34 1027 10 16 0.00 0.00
3:53 pm 15:53 Mostly Cloudy 40 4.4 28 -2.2 62 62 N 18 30 30.37 1028 10 16 0.00 0.00
4:53 pm 16:53 Mostly Cloudy 39 3.9 23 -5 52 52 N 16 26 30.38 1029 10 16 0.00 0.00
5:53 pm 17:53 Cloudy 38 3.3 21 -6.1 50 50 N 13 20 30.42 1030 10 16 0.00 0.00
6:53 pm 18:53 Cloudy 36 2.2 21 -6.1 54 54 N 15 24 30.45 1031 10 16 0.00 0.00
7:53 pm 19:53 Cloudy 35 1.7 23 -5 61 61 NNE 13 20 30.46 1031 10 16 0.00 0.00
8:53 pm 20:53 Cloudy 35 1.7 22 -5.6 58 58 N 9 15 30.45 1031 10 16 0.00 0.00
9:53 pm 21:53 Cloudy 35 1.7 21 -6.1 56 56 N 12 19 30.47 1032 10 16 0.00 0.00
10:53 pm 22:53 Cloudy 34 1.1 16 -8.9 47 47 N 17 28 30.47 1032 10 16 0.00 0.00
11:53 pm 23:53 Cloudy 31 -0.6 11 -11.7 43 43 NNE 18 30 30.49 1032 10 16 0.00 0.00

Powered by AerisWeather